Tracking 27124 objects as of 31-Mar-2023
HD Live streaming from Space Station
objects crossing your sky now

COSMOS 249 DEB

Track COSMOS 249 DEB now!
10-day predictions


NORAD ID: 6764
Int'l Code: 1968-091CK
Perigee: 910.2 km
Apogee: 2,136.8 km
Inclination: 62.3 °
Period: 116.3 minutes
Semi major axis: 7894 km
RCS: 0.0142 m2 (small)
Launch date: October 20, 1968
Source: Commonwealth of Independent States (former USSR) (CIS)
Launch site: TYURATAM MISSILE AND SPACE COMPLEX (TTMTR)

Note: This is SATELLITE DEBRIS
Your satellite tracking list
Your tracking list is empty




NASA's NSSDC Master Catalog

Two Line Element Set (TLE):
1 06764U 68091CK  23089.59030272  .00000145  00000-0  59066-3 0  9996
2 06764  62.3367 144.5599 0776884 139.2492 304.9476 12.37704425579750
Source of the keplerian elements: AFSPC